Weather observations for the past three days for
Clinton Municipal Airport
Imperial (Metric)
Date Time (cdt) Wind (mph) Vis. (mi.) Weather Sky Cond. Temperature (ºF) Relative Humidity Wind Chill (°F) Heat Index (°F) Pressure Precipitation (in)
Air Dwpt 6 hour altimeter (in) sea level (mb) 1 hr 3 hr 6 hr
Max. Min.
17 03:56 N 8 10.00 Fair CLR 62.6 0 0% 29.94 1013.9
17 02:56 N 8 10.00 Fair CLR 64.4 0 0% 29.94 1013.8
17 01:56 N 8 8.00 A Few Clouds FEW110 0 0 0% 29.93 0.0
17 00:56 NW 7 10.00 Fair CLR 0 0 0% 29.95 0.0
16 23:56 NW 5 10.00 Overcast OVC120 0 0 0% 29.94 0.0
16 22:56 NW 6 10.00 Fair CLR 0 0 0% 29.91 0.0
16 21:56 W 5 10.00 Fair CLR 0 0 0% 29.89 0.0
16 20:56 NW 7 10.00 Fair CLR 71.6 0 0% 29.87 0.0
16 19:56 NW 3 10.00 Fair CLR 75 73 94% 73 29.87 0.0
16 18:56 NW 9 10.00 Fair CLR 78.1 70 81 77 76% 80 29.86 0.0
16 17:56 NW 12 10.00 Fair CLR 80.1 73 79% 84 29.87 0.0
16 16:56 W 9 10.00 Fair CLR 80.1 80.1 100% 87 29.87 0.0
16 15:56 W 6 10.00 Fair CLR 78.8 0 0% 29.87 0.0
16 14:56 W 6 10.00 Fair CLR 78.8 0 0% 29.88 0.0
16 13:56 NW 5 10.00 Fair CLR 78.8 0 0% 29.88 0.0
16 12:56 N 7 10.00 Mostly Cloudy BKN011 78.8 0 0% 29.87 0.0
16 11:56 N 7 10.00 Mostly Cloudy SCT011 BKN022 78.8 0 0% 29.85 0.0
16 10:56 N 3 10.00 Overcast BKN013 OVC018 78.8 0 0% 29.84 0.0
16 09:56 Vrbl 3 10.00 Overcast OVC008 75.2 0 0% 29.83 0.0
16 08:56 S 3 10.00 Overcast OVC006 0 0 0% 29.81 0.0
16 07:56 W 6 10.00 A Few Clouds FEW002 0 0 0% 29.81 0.0
16 06:56 W 5 1.25 Fog/Mist OVC002 0 0 0% 29.79 0.0
16 05:56 W 3 0.15 Fog OVC002 0 0 0% 29.78 0.0
16 04:56 SW 3 0.25 Fog OVC002 0 0 0% 29.78 0.0
16 03:56 W 3 0.50 Fog OVC002 0 0 0% 29.78 0.0
16 02:56 W 5 1.50 Fog/Mist FEW002 BKN037 0 0 0% 29.78 0.0
16 01:56 SW 3 7.00 Fair CLR 0 0 0% 29.8 0.0
16 00:56 S 6 10.00 Fair CLR 0 0 0% 29.8 0.0 1.16
15 23:56 S 7 9.00 Fair CLR 0 0 0% 29.8 0.0
15 18:56 SW 5 8.00 Thunderstorm in Vicinity CLR 84 84 91 84 100% 103 29.7 0.0
15 17:56 S 10 10.00 A Few Clouds FEW025 86 82.9 91% 106 29.7 0.0
15 16:56 S 14 10.00 Partly Cloudy FEW025 SCT043 91 82.9 77% 115 29.71 0.0
15 15:56 SE 12 10.00 Fair CLR 90 80.1 73% 108 29.75 0.0
15 14:56 SE 9 10.00 Partly Cloudy SCT023 90 80.1 73% 108 29.78 0.0
15 13:56 SE 9 10.00 A Few Clouds FEW024 89.1 79 72% 105 29.81 0.0
15 12:56 E 7 2.50 Fog/Mist CLR 87.1 82.9 88% 108 29.85 0.0
15 11:56 S 3 10.00 Fair CLR 84.9 81 88% 100 29.87 0.0
15 10:56 Calm 10.00 Fair CLR 82.9 78.1 85% 93 29.87 1011.2
15 09:56 S 3 10.00 Fair CLR 80.1 80.1 100% 87 29.87 1011.1
15 08:56 S 6 10.00 Fair CLR 0 0 0% 29.86 0.0
14 21:56 E 14 10.00 Thunderstorm in Vicinity BKN050 75.2 0 0% 29.83 1009.9 0.04
14 20:56 W 8 10.00 Thunderstorm in Vicinity SCT037 SCT043 BKN095 78.8 0 0% 29.8 1009.0 0.03
14 19:56 W 12 10.00 Thunderstorm in Vicinity Light Rain OVC037 82 82 100% 95 29.83 1009.9 0.01
14 18:56 S 7 10.00 Thunderstorm in Vicinity SCT060 84.9 80.1 89.1 82 85% 99 29.84 1010.1
14 17:56 S 13 10.00 Mostly Cloudy FEW037 SCT046 BKN055 88 80.1 77% 105 29.86 1011.0
14 16:56 S 9 10.00 Mostly Cloudy SCT037 BKN046 89.1 79 72% 105 29.87 1011.2
14 15:56 S 8 10.00 Overcast BKN029 BKN037 OVC047 88 79 75% 103 29.88 1011.4
14 14:56 SW 10 10.00 Overcast BKN032 OVC040 86 77 75% 97 29.89 1012.0
14 13:56 S 12 G 20 10.00 A Few Clouds FEW027 86 78.1 77% 98 29.91 1012.4
14 12:56 S 15 10.00 Fair CLR 82 79 90% 92 29.93 1013.2 0.24
14 11:56 S 15 10.00 Fair CLR 80.1 79 97% 87 29.97 1014.5
14 10:56 SE 13 10.00 Fair CLR 75.9 75.9 100% 75 29.99 1015.2
14 09:56 SE 14 10.00 Fair CLR 71.6 0 0% 29.99 1015.2 0.24
14 04:56 S 5 10.00 Mostly Cloudy SCT047 BKN060 73.4 0 0% 29.97 1014.6
Date Time (cdt) Wind (mph) Vis. (mi.) Weather Sky Cond. Air Dwpt Max. Min. Relative Humidity Wind Chill (°F) Heat Index (°F) altimeter (in) sea level (mb) 1 hr 3 hr 6 hr
6 hour
Temperature (ºF) Pressure Precipitation (in)